{"data":{"norad_id":63816,"intl_designator":"2025-092N","name":"STARLINK-34048","alt_names":[],"object_type":"PAYLOAD","status":"ACTIVE","operator":null,"country":"US","launch_date":"2025-05-04","launch_site_code":"AFETR","launch_vehicle":null,"mission":null,"orbit_class":"UNKNOWN","rcs_meters":null,"size_class":null,"mass_kg":null,"dimensions":null,"purposes":["comms"],"wikipedia_slug":null,"has_3d_model":false,"image_url":null,"decayed_at":null,"tle_current":{"epoch":"2026-09-20T10:16:37.885728Z","epoch_age_seconds":156104,"freshness":"FRESH","line1":"1 63816U 25092N   26263.42821627  .00017186  00000+0  63270-3 0  9996","line2":"2 63816  43.0028 153.0860 0002150 264.9045  95.1562 15.27573091 78445","mean_motion":15.27573091,"eccentricity":0.000215,"inclination_deg":43.0028,"raan_deg":153.086,"arg_perigee_deg":264.9045,"mean_anomaly_deg":95.1562,"bstar":0.0006327,"rev_number":7844,"period_min":94.267175069006,"perigee_km":481.59462469054,"apogee_km":484.54494360772,"semimajor_km":6861.2067841491,"source":"CELESTRAK","updated_at":"2026-09-21T09:00:35.106166Z"}}}